Regional Weather Roundup
Issued by NWS Burlington, VT

Home | Current Version | Previous Version | Text Only | Print | Product List | Glossary On
Versions: 1 2 3 4 5 6 7 8 9 10 11 12 13 14 15 16 17 18 19 20 21 22 23 24 25 26 27 28 29 30 31 32 33 34 35 36 37 38 39 40 41 42 43 44 45 46 47 48 49 50
000
ASUS41 KBTV 290530
RWRBTV
VERMONT REGIONAL WEATHER ROUNDUP
NATIONAL WEATHER SERVICE BURLINGTON VT
100 AM EDT WED JUL 29 2015

NOTE: "FAIR" INDICATES FEW OR NO CLOUDS BELOW 12,000 FEET WITH NO
SIGNIFICANT WEATHER AND/OR OBSTRUCTIONS TO VISIBILITY.

* THESE REPORTS ARE NOT UNDER NWS QUALITY CONTROL AND/OR DO NOT
  REPORT WEATHER SUCH AS PRECIPITATION AND FOG.

VTZ001>019-290600-
_____VERMONT_____


CITY           SKY/WX    TMP DP  RH WIND       PRES   REMARKS
BURLINGTON     CLEAR     71  66  84 CALM      29.97R
MONTPELIER     PTCLDY    64  62  93 CALM      30.04S
MORRISVILLE    PTCLDY    67  64  90 CALM      30.00S
ST. JOHNSBURY*   N/A     66  63  90 MISG      29.97S
LYNDONVILLE*   FAIR      64  62  94 CALM      30.02S
MIDDLEBURY*    FAIR      66  65  97 CALM      29.97S
RUTLAND*       CLEAR     66  57  72 SE10      30.00F
SPRINGFIELD    CLEAR     65  63  93 CALM      30.00S
HIGHGATE*      FAIR      69  66  92 CALM      29.95S
NEWPORT*       MOCLDY    65  64  96 S5        29.99S
BENNINGTON     CLEAR     65  63  93 CALM      30.00S
GALLUP MILLS*    N/A     59 N/A N/A MISG        N/A
MT. MANSFIELD*   N/A     64 N/A N/A NW16        N/A

_____LAKE CHAMPLAIN_____


CITY           SKY/WX    TMP DP  RH WIND       PRES   REMARKS
COLCHESTER RF*   N/A     75  72  88 S8          N/A
DIAMOND ISL*     N/A     73  70  88 SE2         N/A

$$

NYZ007-026>031-035-052-083-290600-
_____NORTHERN NEW YORK_____


CITY           SKY/WX    TMP DP  RH WIND       PRES   REMARKS
PLATTSBURGH    CLEAR     68  67  96 CALM      29.94S FOG
SARANAC LAKE   PTCLDY    60  59  96 CALM      30.03S
MASSENA        PTCLDY    72  63  73 SW8       29.96S
OGDENSBURG*    CLEAR     66  64  94 CALM      29.96S
POTSDAM*       CLEAR     72  66  83 SW3       29.97F
STARK FALLS*     N/A     73 N/A N/A S2          N/A
WATERTOWN      PTCLDY    68  59  73 CALM      29.97F
FT DRUM        PTCLDY    69  61  73 SE2       29.99S
ALBANY         PTCLDY    77  62  59 S6        29.97S
GLENS FALLS    PTCLDY    68  66  93 CALM      29.97S

$$
NHZ002-005-011-290600-
_____NEW HAMPSHIRE_____


CITY           SKY/WX    TMP DP  RH WIND       PRES   REMARKS
LEBANON        CLEAR     65  62  90 CALM      29.98S
KEENE          CLEAR     64  59  82 CALM      29.99S
MT WASHINGTON  FOG       54  54 100 NW23        N/A  VSB 0
PLYMOUTH       FAIR      63  63 100 CALM      29.98S FOG
WHITEFIELD     CLEAR     62  59  90 CALM      30.00S

$$

_____REGIONAL QUEBEC LOCATIONS_____


CITY           SKY/WX    TMP DP  RH WIND       PRES   REMARKS
MONTREAL       PTCLDY    75  70  83 SW7       29.93S
QUEBEC CITY    PTCLDY    64  57  77 N5        29.93S
SHERBROOKE     CLEAR     63  63 100 VRB2      29.96S FOG

_____REGIONAL ONTARIO LOCATIONS_____


CITY           SKY/WX    TMP DP  RH WIND       PRES   REMARKS
OTTAWA         MOCLDY    72  68  88 S5        29.94F

______KEY______
VSB  - VISIBILITY IN MILES
WCI  - WIND CHILL INDEX
HX   - HEAT INDEX
$$
NNNN


USA.gov is the U.S. government's official web portal to all federal, state and local government web resources and services.